Home   Weather   Orange   Past weeks
Flag for USA

Past Weather in Orange, California, USA — Yesterday and Last 2 Weeks

Now
69 °F

Partly sunny.


Feels Like: 69 °F
Forecast: 83 / 64 °F
Wind: 6 mph from East

Location: John Wayne Airport-Orange County Airport

Current Time: Sep 16, 2019 at 7:39:30 am

Latest Report: Sep 16, 2019 at 6:53 am


Visibility: 7 mi

Pressure: 29.89 "Hg

Humidity: 79%

Dew Point: 62 °F

Location of OrangeLocation

Past Weather in Orange — Graph

°F

Orange Temperature Yesterday

Maximum temperature yesterday: 82 °F (at 11:53 am)
Minimum temperature yesterday: 70 °F (at 5:53 am)
Average temperature yesterday: 74 °F

High & Low Weather Summary for the Past Weeks

 TemperatureHumidityPressure
High93 °F (Sep 4, 12:53 pm)90% (Sep 14, 3:59 am)30.02 "Hg (Sep 14, 3:59 am)
Low66 °F (Sep 11, 3:35 am)28% (Sep 14, 2:53 pm)29.79 "Hg (Sep 4, 3:53 pm)
Average76 °F66%29.90 "Hg
* Reported Sep 1 5:53 am — Sep 16 5:53 am, Orange. Weather by CustomWeather, © 2019

Note: Actual official high and low records may vary slightly from our data, if they occured in-between our weather recording intervals... More about our weather records

Advertising

Orange Weather History for the Previous 24 Hours

Scroll right to see more
 ConditionsComfort  
Time TempWeatherWind HumidityBarometerVisibility
5:53 am
Mon, Sep 16
69 °FPassing clouds.No wind79%29.89 "Hg10 mi
4:53 am69 °FClear.No wind79%29.88 "Hg9 mi
3:53 am69 °FClear.3 mph79%29.88 "Hg9 mi
2:53 am70 °FClear.3 mph79%29.88 "Hg9 mi
2:09 am70 °FPassing clouds.No wind79%29.90 "Hg10 mi
1:53 am71 °FPassing clouds.5 mph76%29.89 "Hg10 mi
1:01 am71 °FOvercast.3 mph78%29.89 "Hg10 mi
11:53 pm
Sun, Sep 15
71 °FPassing clouds.5 mph78%29.88 "Hg8 mi
11:30 pm71 °FPassing clouds.3 mph78%29.87 "Hg8 mi
11:21 pm70 °FPassing clouds.6 mph81%29.87 "Hg8 mi
10:53 pm70 °FPassing clouds.5 mph81%29.87 "Hg5 mi
9:53 pm70 °FPassing clouds.5 mph81%29.86 "Hg8 mi
8:53 pm72 °FPassing clouds.6 mph73%29.85 "Hg9 mi
7:53 pm72 °FPassing clouds.No wind73%29.83 "Hg10 mi
6:53 pm73 °FPartly sunny.6 mph71%29.84 "Hg10 mi
5:53 pm76 °FBroken clouds.7 mph62%29.84 "Hg10 mi
4:53 pm77 °FScattered clouds.8 mph62%29.84 "Hg10 mi
4:36 pm78 °FScattered clouds.5 mph60%29.84 "Hg10 mi
3:53 pm78 °FSunny.6 mph60%29.84 "Hg10 mi
2:53 pm79 °FPartly sunny.10 mph58%29.84 "Hg10 mi
1:53 pm80 °FPartly sunny.13 mph52%29.85 "Hg10 mi
12:53 pm82 °FPartly sunny.9 mph51%29.86 "Hg10 mi
11:53 am82 °FPartly sunny.8 mph58%29.88 "Hg10 mi
10:53 am80 °FPartly sunny.No wind58%29.89 "Hg10 mi
9:53 am74 °FPartly sunny.No wind74%29.90 "Hg9 mi
8:53 am72 °FPartly sunny.5 mph78%29.90 "Hg6 mi
7:53 am70 °FBroken clouds.No wind84%29.88 "Hg4 mi
Weather by CustomWeather, © 2019

See weather overview